Location: Newark
(13.6797°N, 8.5297°E)
Time: 02:03:46
(UTC+00:00)

SR - Pass Details

Date: 01 February 2020
Orbit: 575 x 880 km, 66.7° (Epoch: 25 February)

Event Time Altitude Azimuth Distance (km) Brightness Sun altitude
Rises 05:32:41 0° 349° (N) 3,184 ? -5.6°
Reaches altitude 10° 05:35:16 10° 357° (N) 2,207 ? -5.0°
Maximum altitude 05:39:58 41° 66° (ENE) 980 ? -3.9°
Drops below altitude 10° 05:44:17 10° 137° (SE) 2,026 ? -2.9°
Sets 05:46:34 0° 145° (SE) 2,893 ? -2.3°
